Midland City, AL

1:29 AM CST on February 06, 2016 (GMT -0600)
Dothan Regional

Weather History for KDHN - July, 2013

Change the Weather History Date:

Sunday, July 21, 2013

  Actual Average Record
Temperature  
Mean Temperature 81 °F 82 °F  
Max Temperature 88 °F 92 °F 101 °F (1942)
Min Temperature 73 °F 72 °F 66 °F (2004)
Cooling Degree Days 16 17  
Month to date cooling degree days 292 356  
Year to date cooling degree days 1124 1213  
Since 1 June cooling degree days 752 800  
Growing Degree Days 30 (Base 50)    
Moisture  
Dew Point 73 °F    
Average Humidity 88    
Maximum Humidity 100    
Minimum Humidity 63    
Precipitation  
Precipitation 0.57 in 0.17 in 1.58 in (1952)
Month to date precipitation 13.98 4.03  
Year to date precipitation 31.46 31.99  
Sea Level Pressure  
Sea Level Pressure 30.08 in    
Wind  
Wind Speed 7 mph (SW)    
Max Wind Speed 24 mph    
Max Gust Speed 31 mph    
Visibility 8 miles    
Events Fog , Rain , Thunderstorm    
T = Trace of Precipitation, MM = Missing Value Source: NWS Daily Summary

Daily Weather History Graph

Daily Weather History Graph

Search for Another Location

Airport or City:

Trip Planner

Search our weather history database for the weather conditions in past years. The results will help you decide how hot, cold, wet, or windy it might be!

Date:

Astronomy

Jul. 21, 2013 Rise Set
Actual Time 5:51 AM CDT 7:44 PM CDT
Civil Twilight 5:24 AM CDT 8:11 PM CDT
Nautical Twilight 4:51 AM CDT 8:44 PM CDT
Astronomical Twilight 4:17 AM CDT 9:18 PM CDT
Moon 6:44 PM CDT (7/21) 4:35 AM CDT (7/21)
Length of Visible Light 14h 46m
Length of Day
13h 52m
Waxing Gibbous, 98% of the Moon is Illuminated
Jul 21
Waxing Gibbous
Jul 22
Full
Jul 29
Last Quarter
Aug 6
New
Aug 14
First Quarter

Hourly Weather History & Observations

Time (CDT) Temp. Heat Index Dew Point Humidity Pressure Visibility Wind Dir Wind Speed Gust Speed Precip Events Conditions
12:53 AM 73.9 °F - 73.0 °F 97% 30.06 in 3.0 mi South 5.8 mph - 0.06 in   Overcast
1:53 AM 73.9 °F - 73.9 °F 100% 30.04 in 5.0 mi South 6.9 mph - 0.05 in   Overcast
2:53 AM 73.9 °F - 73.9 °F 100% 30.03 in 7.0 mi SSW 4.6 mph - 0.04 in   Overcast
3:53 AM 73.9 °F - 73.9 °F 100% 30.04 in 8.0 mi South 3.5 mph - 0.04 in   Overcast
4:53 AM 73.9 °F - 73.9 °F 100% 30.05 in 6.0 mi SSW 3.5 mph - 0.04 in   Overcast
5:39 AM 73.4 °F - 73.4 °F 100% 30.07 in 8.0 mi SSW 4.6 mph - 0.03 in   Mostly Cloudy
5:53 AM 73.9 °F - 73.0 °F 97% 30.06 in 9.0 mi SSW 3.5 mph - 0.04 in   Mostly Cloudy
6:09 AM 73.4 °F - 73.4 °F 100% 30.08 in 7.0 mi SSW 4.6 mph - 0.01 in   Scattered Clouds
6:53 AM 75.0 °F - 73.9 °F 96% 30.07 in 8.0 mi SSW 4.6 mph - 0.04 in   Scattered Clouds
7:01 AM 75.2 °F - 73.4 °F 94% 30.09 in 8.0 mi South 4.6 mph - N/A   Mostly Cloudy
7:17 AM 75.2 °F - 73.4 °F 94% 30.09 in 9.0 mi SSW 4.6 mph - 0.01 in   Scattered Clouds
7:53 AM 78.1 °F - 75.0 °F 90% 30.08 in 10.0 mi SW 8.1 mph - 0.03 in   Clear
7:56 AM 78.8 °F - 75.2 °F 89% 30.10 in 10.0 mi SW 8.1 mph - 0.01 in   Mostly Cloudy
8:41 AM 78.8 °F - 75.2 °F 89% 30.10 in 10.0 mi WSW 9.2 mph - 0.03 in   Mostly Cloudy
8:53 AM 80.1 °F 85.4 °F 75.9 °F 87% 30.09 in 10.0 mi WSW 8.1 mph - 0.03 in   Mostly Cloudy
9:00 AM 80.6 °F 86.2 °F 75.2 °F 84% 30.10 in 10.0 mi West 6.9 mph - 0.01 in   Mostly Cloudy
9:50 AM 80.6 °F 85.4 °F 73.4 °F 79% 30.10 in 10.0 mi WSW 8.1 mph - 0.02 in   Scattered Clouds
9:53 AM 80.1 °F 84.5 °F 73.9 °F 81% 30.09 in 10.0 mi WSW 6.9 mph - 0.02 in   Mostly Cloudy
10:00 AM 82.4 °F 89.5 °F 75.2 °F 79% 30.11 in 10.0 mi WSW 5.8 mph - 0.01 in   Partly Cloudy
10:53 AM 81.0 °F 85.8 °F 73.0 °F 77% 30.09 in 10.0 mi SSW 9.2 mph - 0.02 in   Mostly Cloudy
11:53 AM 87.1 °F 94.5 °F 73.0 °F 63% 30.08 in 10.0 mi SW 24.2 mph 28.8 mph 0.03 in   Scattered Clouds
12:11 PM 75.2 °F - 71.6 °F 89% 30.10 in 2.5 mi SSW 4.6 mph - 0.00 in Rain , Thunderstorm Light Rain
12:20 PM 78.8 °F - 73.4 °F 83% 30.09 in 4.0 mi SW 3.5 mph - 0.00 in Rain Light Rain
12:42 PM 80.6 °F 86.2 °F 75.2 °F 84% 30.09 in 10.0 mi SSW 8.1 mph - 0.01 in Thunderstorm Partly Cloudy
12:53 PM 80.1 °F 84.2 °F 73.0 °F 79% 30.09 in 8.0 mi WSW 13.8 mph 20.7 mph 0.01 in Rain , Thunderstorm Light Thunderstorms and Rain
12:59 PM 75.2 °F - 71.6 °F 89% 30.09 in 1.8 mi WSW 6.9 mph 20.7 mph 0.00 in Rain , Thunderstorm Heavy Thunderstorms and Rain
1:06 PM 75.2 °F - 73.4 °F 94% 30.10 in 3.0 mi SW 5.8 mph - 0.00 in Rain , Thunderstorm Light Thunderstorms and Rain
1:17 PM 77.0 °F - 73.4 °F 89% 30.09 in 10.0 mi WSW 3.5 mph - 0.01 in   Scattered Clouds
1:35 PM 80.6 °F 86.2 °F 75.2 °F 84% 30.09 in 10.0 mi SSW 8.1 mph - 0.01 in Thunderstorm Clear
1:50 PM 82.4 °F 89.5 °F 75.2 °F 79% 30.08 in 10.0 mi WSW 10.4 mph - 0.02 in   Clear
1:53 PM 84.0 °F 91.9 °F 75.0 °F 74% 30.06 in 10.0 mi WSW 10.4 mph - 0.02 in   Clear
2:53 PM 80.1 °F 83.2 °F 70.0 °F 71% 30.04 in 10.0 mi SW 10.4 mph - N/A   Mostly Cloudy
3:53 PM 77.0 °F - 72.0 °F 84% 30.04 in 10.0 mi SW 8.1 mph - 0.02 in   Clear
4:53 PM 82.0 °F 87.4 °F 73.0 °F 74% 30.03 in 10.0 mi WSW 5.8 mph - 0.01 in   Clear
5:23 PM 82.4 °F 88.2 °F 73.4 °F 74% 30.05 in 10.0 mi SW 6.9 mph - N/A Thunderstorm Clear
5:47 PM 75.2 °F - 71.6 °F 89% 30.09 in 1.0 mi WSW 23.0 mph 31.1 mph 0.01 in Rain Heavy Rain
5:51 PM 73.4 °F - 69.8 °F 88% 30.09 in 0.2 mi WSW 15.0 mph 31.1 mph 0.01 in Fog , Rain Heavy Rain
5:53 PM 73.0 °F - 70.0 °F 90% 30.07 in 0.2 mi West 10.4 mph 31.1 mph 0.01 in Fog , Rain Heavy Rain
5:57 PM 73.4 °F - 71.6 °F 94% 30.08 in 0.2 mi West 10.4 mph 28.8 mph 0.00 in Fog , Rain , Thunderstorm Heavy Thunderstorms and Rain
6:05 PM 73.4 °F - 71.6 °F 94% 30.07 in 1.0 mi West 6.9 mph - N/A Rain , Thunderstorm Heavy Thunderstorms and Rain
6:10 PM 73.4 °F - 71.6 °F 94% 30.08 in 4.0 mi West 9.2 mph - N/A Rain , Thunderstorm Light Thunderstorms and Rain
6:23 PM 75.2 °F - 71.6 °F 89% 30.07 in 10.0 mi West 8.1 mph - N/A Thunderstorm Mostly Cloudy
6:30 PM 75.2 °F - 71.6 °F 89% 30.07 in 10.0 mi West 8.1 mph - N/A   Partly Cloudy
6:53 PM 75.0 °F - 72.0 °F 90% 30.06 in 10.0 mi West 5.8 mph - N/A   Clear
7:53 PM 75.0 °F - 72.0 °F 90% 30.06 in 10.0 mi SW 3.5 mph - 0.02 in   Clear
8:53 PM 75.0 °F - 72.0 °F 90% 30.08 in 10.0 mi Calm Calm - 0.02 in   Clear
9:53 PM 73.9 °F - 72.0 °F 93% 30.09 in 10.0 mi SSW 4.6 mph - 0.02 in   Clear
10:53 PM 73.9 °F - 72.0 °F 93% 30.09 in 10.0 mi SW 8.1 mph - 0.01 in   Clear
11:53 PM 73.9 °F - 72.0 °F 93% 30.09 in 10.0 mi SW 8.1 mph - 0.02 in   Clear